Regional Weather Roundup
Issued by NWS Cleveland, OH

Current Version | Previous Version | Text Only | Print | Product List | Glossary On
Versions: 1 2 3 4 5 6 7 8 9 10 11 12 13 14 15 16 17 18 19 20 21 22 23 24 25 26 27 28 29 30 31 32 33 34 35 36 37 38 39 40 41 42 43 44 45 46 47 48 49 50
172
ASUS41 KCLE 100712
RWRCLE
OHIO REGIONAL WEATHER ROUNDUP
NATIONAL WEATHER SERVICE WILMINGTON, OH
200 AM EST WED FEB 10 2016

NOTE: "FAIR" INDICATES FEW OR NO CLOUDS BELOW 12,000 FEET WITH NO
SIGNIFICANT WEATHER AND/OR OBSTRUCTIONS TO VISIBILITY.

OHZ001>008-015>018-024>027-034-035-043-044-100800-
   NORTHWEST OHIO

CITY           SKY/WX    TMP DP  RH WIND       PRES   REMARKS
DEFIANCE       LGT SNOW  21  14  74 W12G18    29.80F WCI   9
FINDLAY        CLOUDY    20  14  77 W16       29.78F WCI   6
TOLEDO EXPRESS CLOUDY    22  17  81 W14       29.76S WCI   9
TOLEDO EXEC    CLOUDY    24  17  74 W15       29.76F WCI  11
LIMA           FLURRIES  17  13  84 W16       29.81S WCI   2
$$

OHZ009>014-019>023-028>033-038-089-100800-
   NORTHEAST OHIO

CITY           SKY/WX    TMP DP  RH WIND       PRES   REMARKS
CLE-HOPKINS    FLURRIES  24  18  77 W17       29.73S WCI  11
CLE-LAKEFRONT  LGT SNOW  26  22  84 SW16      29.70F FOG     WCI  14
CUY CO. ARPT   NOT AVBL
LORAIN-ELYRIA  CLOUDY    23  17  78 W15       29.73S WCI  10
ASHTABULA      LGT SNOW  25  22  88 W15G25    29.66R FOG     WCI  13
AKRON-CANTON   LGT SNOW  23  16  74 W14G21    29.70S WCI  11
WOOSTER        CLOUDY    22  16  78 W14       29.73R WCI   9
MANSFIELD      CLOUDY    20  16  84 W10G18    29.73S WCI   9
YOUNGSTOWN     FLURRIES  24  19  81 W14       29.66S WCI  12
$$

OHZ042-051>053-060>062-070>072-077>081-100800-
  SOUTHWEST OHIO

CITY           SKY/WX    TMP DP  RH WIND       PRES   REMARKS
CINC-COVINGTON LGT SNOW  16  11  80 W9        29.92S WCI   4
CINC-LUNKEN    CLOUDY    17   8  67 W12       29.97S WCI   4
HAMILTON       FAIR      14   9  80 W9        29.94F WCI   2
DAYTON         CLOUDY    14   9  80 W15       29.86F WCI  -1
WRIGHT-PAT AFB CLOUDY    15   8  72 SW10      29.87S WCI   2
DAYTON GENERAL FAIR      13   7  77 SW9       29.88S WCI   1
WILMINGTON     MOCLDY    13   8  81 W13       29.87S WCI  -2
$$

OHZ036-037-039>041-045>050-054>059-063>069-073>076-082>088-100800-
  CENTRAL AND SOUTHEAST OHIO

CITY           SKY/WX    TMP DP  RH WIND       PRES   REMARKS
COLUMBUS       FLURRIES  19  12  74 W16       29.83S WCI   4
OSU AIRPORT    FLURRIES  18  12  77 W16G25    29.83S WCI   3
BOLTON FIELD   FLURRIES  18  12  77 W12G18    29.85S WCI   5
RICKENBACK AFB FLURRIES  19  14  79 W18       29.86S WCI   4
NEWARK         CLOUDY    21  14  74 MISG      29.81S
MARION         CLOUDY    20  13  74 W14       29.79S WCI   7
LANCASTER      LGT SNOW  20  14  77 W9        29.84S WCI   9
ZANESVILLE     CLOUDY    24  16  71 W9G20     29.80S WCI  14
NEW PHILLY     CLOUDY    24  16  71 W9        29.76S WCI  14
$$




USA.gov is the U.S. government's official web portal to all federal, state and local government web resources and services.